Regional Weather Roundup
Issued by NWS Charleston, WV

Home | Current Version | Previous Version | Graphics & Text | Print | Product List | Glossary On
Versions: 1 2 3 4 5 6 7 8 9 10 11 12 13 14 15 16 17 18 19 20 21 22 23 24 25 26 27 28 29 30 31 32 33 34 35 36 37 38 39 40 41 42 43 44 45 46 47 48 49 50
000
ASUS41 KRLX 282010
RWRRLX
West Virginia Regional Weather Roundup
National Weather Service Charleston WV
400 PM EDT MON JUL 28 2014

Note: "fair" indicates few or no clouds below 12,000 feet with no
significant weather and/or obstructions to visibility.

WVZ003-282100-
Northern Panhandle of West Virginia

CITY           SKY/WX    TMP DP  RH WIND       PRES   REMARKS
WHEELING       CLOUDY    64  57  78 NW17G24   29.87R
$$

WVZ009-282100-
Northwest West Virginia

CITY           SKY/WX    TMP DP  RH WIND       PRES   REMARKS
PARKERSBURG    PTSUNNY  N/A N/A N/A W8        29.90S
$$

WVZ006-282100-
Western West Virginia

CITY           SKY/WX    TMP DP  RH WIND       PRES   REMARKS
HUNTINGTON     CLOUDY    70  59  68 NW9G17    29.93F
$$

WVZ015-282100-
West Central West Virginia

CITY           SKY/WX    TMP DP  RH WIND       PRES   REMARKS
CHARLESTON     CLOUDY    71  60  68 W8        29.92S
$$

WVZ031-282100-
North Central West Virginia

CITY           SKY/WX    TMP DP  RH WIND       PRES   REMARKS
CLARKSBURG     CLOUDY    69  59  70 W14G21    29.85R
MORGANTOWN     CLOUDY    71  57  61 NW8G16    29.84R
$$

WVZ035-042-045-282100-
South Central West Virginia

CITY           SKY/WX    TMP DP  RH WIND       PRES   REMARKS
BECKLEY        PTSUNNY   67  55  65 NW15      29.94S
BLUEFIELD      CLOUDY    68  55  63 W13G29    29.97S
LEWISBURG      CLOUDY    68  55  63 NW6       29.92R
$$

WVZ047-282100-
Northern Mountains of West Virginia

CITY           SKY/WX    TMP DP  RH WIND       PRES   REMARKS
ELKINS         LGT RAIN  63  58  83 SW7       29.88S
$$

WVZ052-282100-
Eastern Panhandle of West Virginia

CITY           SKY/WX    TMP DP  RH WIND       PRES   REMARKS
MARTINSBURG    SUNNY     79  57  46 W21G31    29.71S
PETERSBURG     CLOUDY    70  52  52 W9G17     29.81S
$$


USA.gov is the U.S. government's official web portal to all federal, state and local government web resources and services.